Radiation Dose at Monitoring Post of Fukushima Daini Nuclear Power Station
Date,Time,MP-1(microSv/h),MP-2(microSv/h),MP-3(microSv/h),MP-4(microSv/h),MP-5(microSv/h),MP-6(microSv/h),MP-7(microSv/h),Wind Direction,Wind Velocity(m/s),Rain
2018/01/29,00:00,0.316,0.195,0.321,0.309,0.282,0.163,0.100,southwest,8.4,No
2018/01/29,00:10,0.313,0.195,0.321,0.309,0.282,0.163,0.101,southwest,7.3,No
2018/01/29,00:20,0.315,0.194,0.318,0.310,0.281,0.164,0.100,west-southwest,6.1,No
2018/01/29,00:30,0.317,0.194,0.319,0.310,0.283,0.164,0.098,southwest,6.8,No
2018/01/29,00:40,0.316,0.194,0.319,0.310,0.283,0.163,0.099,west-southwest,7.0,No
2018/01/29,00:50,0.316,0.194,0.321,0.310,0.281,0.163,0.100,west-southwest,4.7,No
2018/01/29,01:00,0.315,0.194,0.320,0.310,0.282,0.163,0.100,west-southwest,3.8,No
2018/01/29,01:10,0.316,0.195,0.319,0.309,0.282,0.164,0.099,west-southwest,3.0,No
2018/01/29,01:20,0.315,0.194,0.319,0.308,0.283,0.164,0.099,west,3.3,No
2018/01/29,01:30,0.316,0.194,0.319,0.310,0.282,0.164,0.100,west-southwest,3.6,No
2018/01/29,01:40,0.316,0.195,0.320,0.309,0.281,0.163,0.099,west-southwest,4.7,No
2018/01/29,01:50,0.316,0.195,0.320,0.308,0.281,0.163,0.099,west-southwest,2.6,No
2018/01/29,02:00,0.315,0.194,0.321,0.309,0.283,0.164,0.100,west-southwest,1.8,No
2018/01/29,02:10,0.316,0.194,0.320,0.309,0.281,0.163,0.099,southwest,2.9,No
2018/01/29,02:20,0.315,0.195,0.320,0.310,0.281,0.163,0.100,south-southwest,2.1,No
2018/01/29,02:30,0.316,0.194,0.321,0.310,0.282,0.163,0.100,south-southwest,3.2,No
2018/01/29,02:40,0.315,0.195,0.320,0.309,0.283,0.163,0.099,south-southwest,3.5,No
2018/01/29,02:50,0.314,0.194,0.322,0.309,0.282,0.164,0.099,south-southwest,5.3,No
2018/01/29,03:00,0.315,0.195,0.320,0.310,0.282,0.163,0.100,south-southwest,7.0,No
2018/01/29,03:10,0.317,0.195,0.322,0.310,0.281,0.163,0.099,south,4.9,No
2018/01/29,03:20,0.316,0.195,0.320,0.311,0.282,0.163,0.100,south,3.9,No
2018/01/29,03:30,0.315,0.194,0.320,0.310,0.283,0.164,0.100,southwest,4.5,No
2018/01/29,03:40,0.316,0.195,0.321,0.310,0.282,0.163,0.100,west-southwest,2.4,No
2018/01/29,03:50,0.315,0.194,0.319,0.309,0.282,0.163,0.100,west,1.8,No
2018/01/29,04:00,0.315,0.194,0.320,0.309,0.282,0.163,0.099,west,1.6,No
2018/01/29,04:10,0.316,0.195,0.320,0.309,0.283,0.163,0.099,west,2.0,No
2018/01/29,04:20,0.316,0.195,0.321,0.308,0.282,0.164,0.100,northwest,3.5,No
2018/01/29,04:30,0.315,0.195,0.320,0.311,0.281,0.164,0.100,north-northwest,2.9,No
2018/01/29,04:40,0.315,0.194,0.320,0.309,0.281,0.164,0.099,north-northwest,3.6,No
2018/01/29,04:50,0.317,0.195,0.321,0.310,0.283,0.163,0.099,north,1.0,No
2018/01/29,05:00,0.317,0.195,0.320,0.309,0.283,0.165,0.100,northeast,2.6,No
2018/01/29,05:10,0.316,0.195,0.322,0.309,0.280,0.163,0.099,north-northeast,4.8,No
2018/01/29,05:20,0.315,0.195,0.322,0.309,0.282,0.163,0.100,north,8.4,No
2018/01/29,05:30,0.316,0.195,0.321,0.310,0.282,0.164,0.099,north,10.3,No
2018/01/29,05:40,0.316,0.193,0.320,0.311,0.281,0.163,0.100,north-northwest,6.3,No
2018/01/29,05:50,0.317,0.194,0.321,0.310,0.282,0.164,0.100,north,7.3,No
2018/01/29,06:00,0.315,0.195,0.321,0.309,0.281,0.164,0.099,north,8.7,No
2018/01/29,06:10,0.317,0.195,0.320,0.309,0.282,0.164,0.099,north,10.3,No
2018/01/29,06:20,0.316,0.194,0.320,0.310,0.282,0.163,0.100,north,8.6,No
2018/01/29,06:30,0.316,0.194,0.321,0.310,0.282,0.163,0.100,north,6.6,No
2018/01/29,06:40,0.316,0.195,0.320,0.309,0.282,0.163,0.100,north,10.0,No
2018/01/29,06:50,0.318,0.194,0.320,0.308,0.282,0.163,0.099,north,9.0,No
2018/01/29,07:00,0.317,0.195,0.322,0.310,0.282,0.163,0.100,north,12.3,No
2018/01/29,07:10,0.316,0.193,0.320,0.310,0.282,0.164,0.100,north,14.0,No
2018/01/29,07:20,0.317,0.194,0.321,0.310,0.281,0.164,0.100,north-northwest,11.4,No
2018/01/29,07:30,0.316,0.194,0.320,0.309,0.282,0.164,0.100,north,11.2,No
2018/01/29,07:40,0.317,0.194,0.322,0.310,0.283,0.163,0.099,north,11.4,No
2018/01/29,07:50,0.316,0.194,0.322,0.311,0.283,0.163,0.100,north,8.4,No
2018/01/29,08:00,0.315,0.196,0.321,0.309,0.283,0.164,0.100,north,5.3,No
2018/01/29,08:10,0.315,0.194,0.321,0.310,0.283,0.164,0.100,north,5.6,No
2018/01/29,08:20,0.317,0.194,0.320,0.309,0.282,0.164,0.100,north,4.7,No
2018/01/29,08:30,0.316,0.194,0.321,0.308,0.282,0.164,0.099,north-northwest,6.0,No
2018/01/29,08:40,0.316,0.194,0.320,0.309,0.282,0.164,0.100,north-northwest,6.0,No
2018/01/29,08:50,0.317,0.195,0.322,0.310,0.283,0.162,0.099,north,5.7,No
2018/01/29,09:00,0.315,0.194,0.321,0.309,0.282,0.163,0.100,north-northeast,5.4,No
2018/01/29,09:10,0.316,0.196,0.321,0.309,0.283,0.163,0.099,north-northeast,3.1,No
2018/01/29,09:20,0.316,0.195,0.322,0.309,0.282,0.164,0.100,north,6.8,No
2018/01/29,09:30,0.318,0.193,0.320,0.308,0.281,0.163,0.100,north,3.9,No
2018/01/29,09:40,0.318,0.193,0.321,0.308,0.282,0.164,0.099,north-northeast,5.5,No
2018/01/29,09:50,0.315,0.194,0.321,0.309,0.283,0.163,0.100,north,6.6,No
2018/01/29,10:00,0.316,0.195,0.321,0.309,0.283,0.163,0.099,north-northeast,7.7,No
2018/01/29,10:10,0.317,0.194,0.321,0.310,0.282,0.164,0.099,north-northeast,8.8,No
2018/01/29,10:20,0.315,0.195,0.321,0.309,0.282,0.163,0.099,north-northeast,7.0,No
2018/01/29,10:30,0.315,0.194,0.320,0.309,0.283,0.163,0.100,north-northeast,7.5,No
2018/01/29,10:40,0.315,0.195,0.320,0.310,0.283,0.164,0.100,northeast,6.9,No
2018/01/29,10:50,0.315,0.194,0.321,0.309,0.282,0.164,0.099,north-northeast,7.6,No
2018/01/29,11:00,0.315,0.193,0.321,0.311,0.285,0.163,0.099,north-northeast,7.8,No
2018/01/29,11:10,0.316,0.195,0.320,0.309,0.284,0.164,0.099,north-northeast,7.0,No
2018/01/29,11:20,0.316,0.194,0.320,0.309,0.282,0.164,0.099,north-northeast,6.0,No
2018/01/29,11:30,0.314,0.195,0.321,0.310,0.284,0.163,0.100,northeast,7.3,No
2018/01/29,11:40,0.318,0.196,0.322,0.308,0.284,0.164,0.099,north-northeast,6.2,No
2018/01/29,11:50,0.316,0.195,0.320,0.309,0.286,0.164,0.100,north-northeast,7.0,No
2018/01/29,12:00,0.317,0.195,0.320,0.310,0.284,0.164,0.099,north-northeast,7.1,No
2018/01/29,12:10,0.317,0.195,0.320,0.309,0.285,0.164,0.100,northeast,5.9,No
2018/01/29,12:20,0.317,0.195,0.320,0.310,0.286,0.164,0.100,north-northeast,6.1,No
2018/01/29,12:30,0.316,0.194,0.321,0.309,0.285,0.164,0.100,northeast,6.6,No
2018/01/29,12:40,0.319,0.195,0.321,0.310,0.288,0.164,0.099,north-northeast,7.7,No
2018/01/29,12:50,0.318,0.196,0.319,0.311,0.286,0.163,0.100,north-northeast,9.5,No
2018/01/29,13:00,0.317,0.197,0.321,0.310,0.286,0.164,0.100,north-northeast,9.0,No
2018/01/29,13:10,0.319,0.195,0.321,0.310,0.288,0.164,0.099,north-northeast,8.6,No
2018/01/29,13:20,0.319,0.195,0.320,0.311,0.286,0.165,0.100,north-northeast,8.1,No
2018/01/29,13:30,0.319,0.196,0.322,0.312,0.287,0.165,0.099,north-northeast,7.8,No
2018/01/29,13:40,0.319,0.196,0.320,0.310,0.289,0.164,0.100,north-northeast,7.0,No
2018/01/29,13:50,0.321,0.197,0.321,0.311,0.287,0.165,0.099,northeast,7.5,No
2018/01/29,14:00,0.319,0.198,0.322,0.311,0.288,0.165,0.100,northeast,7.6,No
2018/01/29,14:10,0.319,0.195,0.322,0.310,0.289,0.164,0.099,north-northeast,7.6,No
2018/01/29,14:20,0.321,0.195,0.322,0.311,0.287,0.165,0.100,north-northeast,9.7,No
2018/01/29,14:30,0.321,0.197,0.323,0.312,0.289,0.164,0.100,north-northeast,7.0,No
2018/01/29,14:40,0.321,0.196,0.324,0.312,0.288,0.164,0.100,north-northeast,5.6,No
2018/01/29,14:50,0.321,0.196,0.323,0.312,0.288,0.165,0.099,north-northeast,5.8,No
2018/01/29,15:00,0.321,0.197,0.322,0.313,0.289,0.164,0.100,north-northeast,4.6,No
2018/01/29,15:10,0.321,0.197,0.323,0.313,0.289,0.164,0.100,north-northeast,4.7,No
2018/01/29,15:20,0.321,0.197,0.325,0.312,0.289,0.165,0.100,northeast,3.6,No
2018/01/29,15:30,0.322,0.197,0.322,0.313,0.288,0.165,0.099,north-northeast,3.2,No
2018/01/29,15:40,0.322,0.197,0.323,0.313,0.290,0.166,0.100,north-northeast,4.5,No
2018/01/29,15:50,0.322,0.197,0.323,0.311,0.290,0.164,0.100,north-northeast,4.9,No
2018/01/29,16:00,0.321,0.197,0.325,0.311,0.289,0.164,0.100,north-northeast,6.1,No
2018/01/29,16:10,0.321,0.198,0.325,0.313,0.289,0.165,0.100,north-northeast,4.7,No
2018/01/29,16:20,0.322,0.197,0.323,0.311,0.289,0.165,0.099,northeast,5.7,No
2018/01/29,16:30,0.323,0.198,0.322,0.311,0.290,0.165,0.101,north-northeast,7.0,Yes
2018/01/29,16:40,0.322,0.198,0.325,0.313,0.289,0.165,0.101,north-northeast,6.3,Yes
2018/01/29,16:50,0.322,0.196,0.324,0.313,0.291,0.166,0.100,north-northeast,6.1,Yes
2018/01/29,17:00,0.323,0.198,0.325,0.314,0.291,0.166,0.099,north-northeast,6.9,Yes
2018/01/29,17:10,0.323,0.199,0.324,0.314,0.290,0.167,0.102,north,7.0,Yes
2018/01/29,17:20,0.324,0.199,0.325,0.313,0.289,0.167,0.102,north,5.7,Yes
2018/01/29,17:30,0.324,0.199,0.325,0.313,0.291,0.168,0.102,north-northwest,5.4,Yes
2018/01/29,17:40,0.325,0.199,0.326,0.313,0.290,0.167,0.102,north,5.4,Yes
2018/01/29,17:50,0.324,0.200,0.324,0.312,0.289,0.167,0.102,north-northwest,5.7,Yes
2018/01/29,18:00,0.324,0.198,0.324,0.313,0.291,0.167,0.101,north-northwest,6.2,Yes
2018/01/29,18:10,0.324,0.199,0.324,0.313,0.290,0.167,0.102,north-northwest,5.5,Yes
2018/01/29,18:20,0.323,0.198,0.324,0.313,0.289,0.166,0.101,north-northwest,6.4,Yes
2018/01/29,18:30,0.323,0.199,0.325,0.313,0.289,0.166,0.101,northwest,6.7,Yes
2018/01/29,18:40,0.324,0.198,0.325,0.313,0.291,0.167,0.101,north-northwest,6.9,Yes
2018/01/29,18:50,0.324,0.199,0.324,0.312,0.289,0.166,0.101,north-northwest,6.9,Yes
2018/01/29,19:00,0.323,0.200,0.324,0.313,0.289,0.167,0.102,northwest,5.3,Yes
2018/01/29,19:10,0.323,0.200,0.325,0.311,0.289,0.167,0.102,northwest,4.8,Yes
2018/01/29,19:20,0.324,0.200,0.326,0.313,0.290,0.167,0.102,north-northwest,4.5,Yes
2018/01/29,19:30,0.325,0.200,0.325,0.312,0.288,0.167,0.101,north-northwest,2.5,Yes
2018/01/29,19:40,0.323,0.200,0.324,0.312,0.289,0.166,0.101,northwest,2.3,Yes
2018/01/29,19:50,0.324,0.198,0.324,0.312,0.288,0.166,0.101,north-northwest,3.6,No
2018/01/29,20:00,0.324,0.199,0.325,0.310,0.288,0.166,0.101,northwest,2.8,No
2018/01/29,20:10,0.324,0.198,0.322,0.312,0.290,0.165,0.100,northwest,2.8,No
2018/01/29,20:20,0.322,0.198,0.324,0.313,0.288,0.165,0.101,west-northwest,2.5,No
2018/01/29,20:30,0.324,0.198,0.324,0.312,0.288,0.166,0.100,west-northwest,2.0,No
2018/01/29,20:40,0.322,0.198,0.324,0.312,0.287,0.166,0.100,northwest,1.2,No
2018/01/29,20:50,0.323,0.197,0.324,0.311,0.286,0.166,0.100,north-northwest,1.8,No
2018/01/29,21:00,0.323,0.198,0.324,0.311,0.288,0.165,0.100,northwest,1.3,No
2018/01/29,21:10,0.322,0.196,0.325,0.311,0.289,0.165,0.100,north-northwest,1.2,No
2018/01/29,21:20,0.323,0.197,0.325,0.312,0.288,0.165,0.100,north,2.1,No
2018/01/29,21:30,0.323,0.199,0.324,0.313,0.288,0.166,0.101,north,3.0,No
2018/01/29,21:40,0.323,0.197,0.325,0.310,0.287,0.165,0.100,north,3.5,No
2018/01/29,21:50,0.322,0.197,0.324,0.310,0.290,0.165,0.100,north,3.8,No
2018/01/29,22:00,0.323,0.198,0.324,0.310,0.288,0.165,0.099,north-northwest,3.4,No
2018/01/29,22:10,0.323,0.197,0.324,0.311,0.287,0.165,0.100,north,2.7,No
2018/01/29,22:20,0.323,0.198,0.324,0.311,0.287,0.165,0.100,north,4.0,No
2018/01/29,22:30,0.322,0.196,0.323,0.310,0.287,0.165,0.099,north,4.3,No
2018/01/29,22:40,0.321,0.198,0.323,0.311,0.288,0.164,0.099,north-northwest,4.6,No
2018/01/29,22:50,0.322,0.197,0.323,0.311,0.288,0.165,0.100,north-northwest,4.7,No
2018/01/29,23:00,0.324,0.198,0.323,0.311,0.287,0.165,0.100,north,6.9,No
2018/01/29,23:10,0.323,0.196,0.324,0.311,0.288,0.165,0.101,north,6.4,No
2018/01/29,23:20,0.322,0.197,0.323,0.312,0.287,0.165,0.100,north,6.4,No
2018/01/29,23:30,0.323,0.197,0.323,0.311,0.287,0.165,0.100,north-northwest,7.5,No
2018/01/29,23:40,0.323,0.197,0.325,0.312,0.289,0.165,0.100,north-northwest,7.4,No
2018/01/29,23:50,0.324,0.196,0.324,0.310,0.287,0.165,0.100,north,7.8,No
